Satellite: ISS
Catalog number: 25544
Epoch time:      10119.78946759
Element set:      62
Inclination:      051.6447 deg
RA of node:       118.9583 deg
Eccentricity:    0.0009681
Arg of perigee:   254.0348 deg
Mean anomaly:     111.3677 deg
Mean motion:   15.73444830 rev/day
Decay rate:     1.2045e-04 rev/day^2
Epoch rev:           65585
Checksum:              320

Satellite: CO-58
Catalog number: 28895
Epoch time:      10119.66148547
Element set:     570
Inclination:      098.0236 deg
RA of node:       005.7296 deg
Eccentricity:    0.0019113
Arg of perigee:   077.2560 deg
Mean anomaly:     283.0816 deg
Mean motion:   14.59881398 rev/day
Decay rate:       1.61e-06 rev/day^2
Epoch rev:           23990
Checksum:              334

Satellite: FALCON
Catalog number: 30776
Epoch time:      10119.87668917
Element set:     816
Inclination:      035.4345 deg
RA of node:       337.5859 deg
Eccentricity:    0.0000120
Arg of perigee:   355.6348 deg
Mean anomaly:     004.4365 deg
Mean motion:   15.03622112 rev/day
Decay rate:       8.74e-06 rev/day^2
Epoch rev:           17278
Checksum:              301

Satellite: MAST
Catalog number: 31126
Epoch time:      10119.00414963
Element set:     852
Inclination:      097.9425 deg
RA of node:       163.5467 deg
Eccentricity:    0.0095304
Arg of perigee:   019.7035 deg
Mean anomaly:     340.7813 deg
Mean motion:   14.53579819 rev/day
Decay rate:       1.99e-06 rev/day^2
Epoch rev:           16091
Checksum:              304

Satellite: CAPE1
Catalog number: 31130
Epoch time:      10119.00817199
Element set:     872
Inclination:      097.9435 deg
RA of node:       161.0586 deg
Eccentricity:    0.0103348
Arg of perigee:   027.5821 deg
Mean anomaly:     333.0804 deg
Mean motion:   14.52169523 rev/day
Decay rate:       4.49e-06 rev/day^2
Epoch rev:           16052
Checksum:              280

Satellite: COMPASS
Catalog number: 32787
Epoch time:      10119.07909339
Element set:     657
Inclination:      097.8974 deg
RA of node:       184.5029 deg
Eccentricity:    0.0016993
Arg of perigee:   085.1464 deg
Mean anomaly:     275.1715 deg
Mean motion:   14.81842806 rev/day
Decay rate:       5.35e-06 rev/day^2
Epoch rev:           10822
Checksum:              331

Satellite: AAUSAT2
Catalog number: 32788
Epoch time:      10118.68174876
Element set:     651
Inclination:      097.8992 deg
RA of node:       184.2307 deg
Eccentricity:    0.0017115
Arg of perigee:   087.6887 deg
Mean anomaly:     272.6277 deg
Mean motion:   14.81983713 rev/day
Decay rate:       7.17e-06 rev/day^2
Epoch rev:           10817
Checksum:              347

Satellite: DO-64
Catalog number: 32789
Epoch time:      10118.69506174
Element set:     667
Inclination:      097.9043 deg
RA of node:       184.6604 deg
Eccentricity:    0.0016934
Arg of perigee:   087.1687 deg
Mean anomaly:     273.1456 deg
Mean motion:   14.82100957 rev/day
Decay rate:       9.77e-06 rev/day^2
Epoch rev:           10817
Checksum:              343

Satellite: CO-66
Catalog number: 32791
Epoch time:      10119.63423782
Element set:     649
Inclination:      097.8996 deg
RA of node:       185.0710 deg
Eccentricity:    0.0017264
Arg of perigee:   081.7284 deg
Mean anomaly:     278.5888 deg
Mean motion:   14.81636413 rev/day
Decay rate:       7.37e-06 rev/day^2
Epoch rev:           10826
Checksum:              347

Satellite: RS-30
Catalog number: 32953
Epoch time:      10119.75513246
Element set:     646
Inclination:      082.5012 deg
RA of node:       059.7908 deg
Eccentricity:    0.0017634
Arg of perigee:   205.3053 deg
Mean anomaly:     154.7165 deg
Mean motion:   12.43005069 rev/day
Decay rate:        1.0e-07 rev/day^2
Epoch rev:            8772
Checksum:              276

Satellite: TACSAT-3
Catalog number: 35001
Epoch time:      10119.39617662
Element set:     274
Inclination:      040.4543 deg
RA of node:       147.1068 deg
Eccentricity:    0.0022125
Arg of perigee:   356.5303 deg
Mean anomaly:     003.5352 deg
Mean motion:   15.41340632 rev/day
Decay rate:      4.401e-05 rev/day^2
Epoch rev:            5310
Checksum:              235

Satellite: PHARMSAT
Catalog number: 35002
Epoch time:      10119.23770348
Element set:     259
Inclination:      040.4703 deg
RA of node:       146.2380 deg
Eccentricity:    0.0024651
Arg of perigee:   359.9945 deg
Mean anomaly:     000.0863 deg
Mean motion:   15.41909592 rev/day
Decay rate:      4.194e-05 rev/day^2
Epoch rev:            5309
Checksum:              281

Satellite: HAWKSAT1
Catalog number: 35003
Epoch time:      10119.23865335
Element set:     276
Inclination:      040.4620 deg
RA of node:       142.3723 deg
Eccentricity:    0.0022014
Arg of perigee:   011.1038 deg
Mean anomaly:     349.0263 deg
Mean motion:   15.44541126 rev/day
Decay rate:      8.667e-05 rev/day^2
Epoch rev:            5314
Checksum:              243

Satellite: CP6
Catalog number: 35004
Epoch time:      10119.19498446
Element set:     269
Inclination:      040.4600 deg
RA of node:       142.0476 deg
Eccentricity:    0.0021280
Arg of perigee:   012.4753 deg
Mean anomaly:     347.6585 deg
Mean motion:   15.45202223 rev/day
Decay rate:     1.0202e-04 rev/day^2
Epoch rev:            5313
Checksum:              253

